| time (UTC) | temp C | wind direction | speed KPH | gust KPH | rain 1hr cm | rain 24hr cm | rain mn cm | humidity % | barometer mb |
| 20260901062504 | 18 | 138 | 3.2 | 4.8 | 0.00 | 0.00 | 0.00 | 72 | 1008.9 |
| 20260901062004 | 18 | 109 | 3.2 | 3.2 | 0.00 | 0.00 | 0.00 | 72 | 1008.8 |
| 20260901061505 | 18 | 160 | 1.6 | 3.2 | 0.00 | 0.00 | 0.00 | 71 | 1008.7 |
| 20260901061004 | 18 | 227 | 1.6 | 1.6 | 0.00 | 0.00 | 0.00 | 71 | 1008.6 |
| 20260901060505 | 18 | 226 | 3.2 | 8.0 | 0.00 | 0.00 | 0.00 | 70 | 1008.6 |
| 20260901060005 | 18 | 293 | 1.6 | 3.2 | 0.00 | 0.00 | 0.00 | 70 | 1008.5 |
| 20260901055505 | 18 | 311 | 0.0 | 3.2 | 0.00 | 0.00 | 0.00 | 70 | 1008.4 |
| 20260901055004 | 18 | 325 | 1.6 | 4.8 | 0.00 | 0.00 | 0.00 | 70 | 1008.4 |
| 20260901054505 | 18 | 337 | 3.2 | 3.2 | 0.00 | 0.00 | 0.00 | 69 | 1008.4 |
| 20260901054005 | 19 | 333 | 3.2 | 3.2 | 0.00 | 0.00 | 0.00 | 69 | 1008.4 |
| 20260901053504 | 19 | 281 | 1.6 | 3.2 | 0.00 | 0.00 | 0.00 | 68 | 1008.4 |
| 20260901053005 | 19 | 281 | 1.6 | 3.2 | 0.00 | 0.00 | 0.00 | 68 | 1008.4 |
| 20260901052505 | 19 | 281 | 0.0 | 3.2 | 0.00 | 0.00 | 0.00 | 67 | 1008.4 |
| 20260901052005 | 20 | 320 | 3.2 | 4.8 | 0.00 | 0.00 | 0.00 | 67 | 1008.3 |
| 20260901051004 | 20 | 207 | 1.6 | 3.2 | 0.00 | 0.00 | 0.00 | 67 | 1008.2 |
| 20260901050504 | 20 | 320 | 0.0 | 3.2 | 0.00 | 0.00 | 0.00 | 66 | 1008.2 |
| 20260901050004 | 20 | 279 | 1.6 | 1.6 | 0.00 | 0.00 | 0.00 | 65 | 1008.3 |
| 20260901045505 | 20 | 7 | 1.6 | 4.8 | 0.00 | 0.00 | 0.00 | 64 | 1008.3 |
| 20260901045004 | 20 | 315 | 0.0 | 3.2 | 0.00 | 0.00 | 0.00 | 64 | 1008.3 |
| 20260901044506 | 21 | 347 | 1.6 | 3.2 | 0.00 | 0.00 | 0.00 | 63 | 1008.3 |
| 20260901044005 | 21 | 291 | 1.6 | 3.2 | 0.00 | 0.00 | 0.00 | 62 | 1008.3 |
| 20260901043005 | 21 | 209 | 0.0 | 3.2 | 0.00 | 0.00 | 0.00 | 62 | 1008.1 |
| 20260901042504 | 21 | 209 | 1.6 | 4.8 | 0.00 | 0.00 | 0.00 | 60 | 1008.1 |
| 20260901042005 | 22 | 234 | 1.6 | 9.7 | 0.00 | 0.00 | 0.00 | 60 | 1008.0 |
| 20260901041005 | 22 | 31 | 1.6 | 3.2 | 0.00 | 0.00 | 0.00 | 59 | 1007.9 |
| 20260901040504 | 22 | 29 | 1.6 | 3.2 | 0.00 | 0.00 | 0.00 | 59 | 1007.7 |
| 20260901040004 | 22 | 0 | 3.2 | 4.8 | 0.00 | 0.00 | 0.00 | 58 | 1007.7 |
| 20260901035504 | 22 | 315 | 0.0 | 1.6 | 0.00 | 0.00 | 0.00 | 57 | 1007.6 |
| 20260901035005 | 22 | 316 | 1.6 | 4.8 | 0.00 | 0.00 | 0.00 | 57 | 1007.6 |
| 20260901034505 | 23 | 288 | 3.2 | 4.8 | 0.00 | 0.00 | 0.00 | 56 | 1007.4 |
| 20260901034005 | 23 | 287 | 3.2 | 4.8 | 0.00 | 0.00 | 0.00 | 56 | 1007.2 |
| 20260901033504 | 23 | 319 | 3.2 | 8.0 | 0.00 | 0.00 | 0.00 | 56 | 1007.1 |
| 20260901033005 | 23 | 326 | 3.2 | 12.9 | 0.00 | 0.00 | 0.00 | 55 | 1006.9 |
| 20260901032504 | 23 | 325 | 4.8 | 12.9 | 0.00 | 0.00 | 0.00 | 54 | 1006.8 |
| 20260901032005 | 23 | 343 | 8.0 | 11.3 | 0.00 | 0.00 | 0.00 | 54 | 1006.6 |
| 20260901031505 | 24 | 329 | 4.8 | 8.0 | 0.00 | 0.00 | 0.00 | 53 | 1006.6 |
| 20260901030505 | 25 | 330 | 3.2 | 8.0 | 0.00 | 0.00 | 0.00 | 51 | 1006.7 |
| 20260901030005 | 25 | 326 | 3.2 | 8.0 | 0.00 | 0.00 | 0.00 | 50 | 1006.8 |
| 20260901025505 | 25 | 331 | 3.2 | 4.8 | 0.00 | 0.00 | 0.00 | 50 | 1006.8 |
| 20260901025004 | 25 | 335 | 4.8 | 8.0 | 0.00 | 0.00 | 0.00 | 49 | 1006.8 |
| 20260901024504 | 25 | 327 | 4.8 | 12.9 | 0.00 | 0.00 | 0.00 | 48 | 1006.7 |
| 20260901024005 | 26 | 332 | 4.8 | 9.7 | 0.00 | 0.00 | 0.00 | 46 | 1006.7 |
| 20260901023004 | 26 | 335 | 1.6 | 3.2 | 0.00 | 0.00 | 0.00 | 42 | 1006.6 |
| 20260901022504 | 27 | 325 | 1.6 | 3.2 | 0.00 | 0.00 | 0.00 | 39 | 1006.6 |
| 20260901022004 | 27 | 324 | 3.2 | 4.8 | 0.00 | 0.00 | 0.00 | 39 | 1006.6 |
| 20260901021505 | 28 | 223 | 1.6 | 3.2 | 0.00 | 0.00 | 0.00 | 38 | 1006.5 |
| 20260901021005 | 28 | 205 | 3.2 | 4.8 | 0.00 | 0.00 | 0.00 | 37 | 1006.5 |
| 20260901020505 | 28 | 213 | 1.6 | 4.8 | 0.00 | 0.00 | 0.00 | 35 | 1006.4 |
| 20260901020005 | 29 | 200 | 6.4 | 11.3 | 0.00 | 0.00 | 0.00 | 33 | 1006.4 |
| 20260901015004 | 30 | 210 | 3.2 | 4.8 | 0.00 | 0.00 | 0.00 | 33 | 1006.4 |
| 20260901014505 | 30 | 207 | 1.6 | 3.2 | 0.00 | 0.00 | 0.00 | 30 | 1006.4 |
| 20260901014004 | 30 | 188 | 1.6 | 3.2 | 0.00 | 0.00 | 0.00 | 29 | 1006.3 |
| 20260901013504 | 30 | 164 | 1.6 | 4.8 | 0.00 | 0.00 | 0.00 | 25 | 1006.4 |
| 20260901013005 | 30 | 192 | 3.2 | 4.8 | 0.00 | 0.00 | 0.00 | 26 | 1006.3 |
| 20260901012505 | 30 | 185 | 3.2 | 8.0 | 0.00 | 0.00 | 0.00 | 27 | 1006.3 |
| 20260901012005 | 30 | 189 | 1.6 | 3.2 | 0.00 | 0.00 | 0.00 | 26 | 1006.4 |
| 20260901011004 | 30 | 122 | 1.6 | 3.2 | 0.00 | 0.00 | 0.00 | 24 | 1006.4 |
| 20260901010005 | 30 | 127 | 3.2 | 4.8 | 0.00 | 0.00 | 0.00 | 24 | 1006.5 |
| 20260901005505 | 30 | 108 | 1.6 | 3.2 | 0.00 | 0.00 | 0.00 | 26 | 1006.5 |
| 20260901005005 | 30 | 70 | 1.6 | 3.2 | 0.00 | 0.00 | 0.00 | 27 | 1006.5 |
| 20260901004505 | 30 | 97 | 1.6 | 4.8 | 0.00 | 0.00 | 0.00 | 26 | 1006.4 |
| 20260901003505 | 30 | 50 | 3.2 | 8.0 | 0.00 | 0.00 | 0.00 | 26 | 1006.6 |
| 20260901003004 | 30 | 59 | 3.2 | 8.0 | 0.00 | 0.00 | 0.00 | 28 | 1006.5 |
| 20260901002505 | 30 | 82 | 3.2 | 8.0 | 0.00 | 0.00 | 0.00 | 28 | 1006.6 |
| 20260901001505 | 30 | 6 | 1.6 | 3.2 | 0.00 | 0.00 | 0.00 | 28 | 1006.7 |
| 20260901001005 | 30 | 9 | 1.6 | 4.8 | 0.00 | 0.00 | 0.00 | 26 | 1006.6 |
| 20260901000504 | 30 | 84 | 3.2 | 8.0 | 0.00 | 0.00 | 0.00 | 28 | 1006.7 |
| 20260901000004 | 29 | 342 | 1.6 | 3.2 | 0.00 | 0.00 | 0.00 | 28 | 1006.7 |
| 20260831235505 | 29 | 0 | 1.6 | 3.2 | 0.00 | 0.00 | 0.00 | 28 | 1006.6 |
| 20260831235005 | 29 | 29 | 3.2 | 4.8 | 0.00 | 0.00 | 0.00 | 28 | 1006.7 |
| 20260831234504 | 29 | 340 | 1.6 | 3.2 | 0.00 | 0.00 | 0.00 | 30 | 1006.7 |
| 20260831234004 | 29 | 356 | 3.2 | 4.8 | 0.00 | 0.00 | 0.00 | 29 | 1006.8 |
| 20260831233504 | 29 | 24 | 1.6 | 4.8 | 0.00 | 0.00 | 0.00 | 30 | 1006.8 |
| 20260831233005 | 29 | 4 | 3.2 | 4.8 | 0.00 | 0.00 | 0.00 | 30 | 1006.7 |
| 20260831232505 | 29 | 0 | 1.6 | 3.2 | 0.00 | 0.00 | 0.00 | 28 | 1006.8 |
| 20260831232004 | 28 | 20 | 3.2 | 4.8 | 0.00 | 0.00 | 0.00 | 29 | 1006.9 |
| 20260831231504 | 29 | 6 | 1.6 | 3.2 | 0.00 | 0.00 | 0.00 | 30 | 1006.9 |
| 20260831231004 | 28 | 349 | 1.6 | 4.8 | 0.00 | 0.00 | 0.00 | 31 | 1007.0 |
| 20260831230504 | 28 | 32 | 1.6 | 3.2 | 0.00 | 0.00 | 0.00 | 32 | 1007.1 |
| 20260831230005 | 28 | 6 | 1.6 | 4.8 | 0.00 | 0.00 | 0.00 | 30 | 1007.1 |
| 20260831225504 | 28 | 16 | 3.2 | 4.8 | 0.00 | 0.00 | 0.00 | 34 | 1007.2 |
| 20260831225005 | 28 | 83 | 3.2 | 4.8 | 0.00 | 0.00 | 0.00 | 33 | 1007.2 |
| 20260831224505 | 28 | 27 | 4.8 | 12.9 | 0.00 | 0.00 | 0.00 | 34 | 1007.2 |
| 20260831224005 | 28 | 77 | 4.8 | 12.9 | 0.00 | 0.00 | 0.00 | 34 | 1007.3 |
| 20260831223504 | 28 | 71 | 4.8 | 9.7 | 0.00 | 0.00 | 0.00 | 35 | 1007.3 |
| 20260831223005 | 28 | 50 | 4.8 | 11.3 | 0.00 | 0.00 | 0.00 | 34 | 1007.3 |
| 20260831222504 | 28 | 98 | 4.8 | 11.3 | 0.00 | 0.00 | 0.00 | 35 | 1007.4 |
| 20260831221004 | 28 | 79 | 8.0 | 12.9 | 0.00 | 0.00 | 0.00 | 34 | 1007.5 |
| 20260831220505 | 28 | 221 | 1.6 | 8.0 | 0.00 | 0.00 | 0.00 | 36 | 1007.6 |
| 20260831220004 | 27 | 72 | 3.2 | 8.0 | 0.00 | 0.00 | 0.00 | 36 | 1007.6 |
| 20260831215504 | 28 | 83 | 4.8 | 8.0 | 0.00 | 0.00 | 0.00 | 35 | 1007.7 |
| 20260831214504 | 28 | 109 | 3.2 | 9.7 | 0.00 | 0.00 | 0.00 | 36 | 1007.7 |
| 20260831213504 | 27 | 340 | 1.6 | 3.2 | 0.00 | 0.00 | 0.00 | 38 | 1007.8 |
| 20260831212504 | 27 | 8 | 3.2 | 8.0 | 0.00 | 0.00 | 0.00 | 38 | 1008.0 |
| 20260831212004 | 27 | 7 | 1.6 | 3.2 | 0.00 | 0.00 | 0.00 | 39 | 1008.0 |
| 20260831211504 | 27 | 317 | 3.2 | 3.2 | 0.00 | 0.00 | 0.00 | 38 | 1008.1 |
| 20260831210505 | 26 | 3 | 3.2 | 4.8 | 0.00 | 0.00 | 0.00 | 38 | 1008.3 |
| 20260831210004 | 26 | 327 | 1.6 | 3.2 | 0.00 | 0.00 | 0.00 | 39 | 1008.4 |
| 20260831205504 | 26 | 248 | 3.2 | 4.8 | 0.00 | 0.00 | 0.00 | 37 | 1008.4 |
| 20260831205004 | 26 | 163 | 4.8 | 8.0 | 0.00 | 0.00 | 0.00 | 38 | 1008.4 |
| 20260831204505 | 26 | 85 | 4.8 | 12.9 | 0.00 | 0.00 | 0.00 | 38 | 1008.4 |
| 20260831204005 | 26 | 42 | 3.2 | 9.7 | 0.00 | 0.00 | 0.00 | 38 | 1008.5 |
| 20260831203505 | 26 | 67 | 1.6 | 4.8 | 0.00 | 0.00 | 0.00 | 38 | 1008.6 |
| 20260831203005 | 26 | 62 | 4.8 | 8.0 | 0.00 | 0.00 | 0.00 | 38 | 1008.7 |
| 20260831202505 | 26 | 351 | 1.6 | 8.0 | 0.00 | 0.00 | 0.00 | 36 | 1008.8 |
| 20260831202004 | 26 | 96 | 6.4 | 12.9 | 0.00 | 0.00 | 0.00 | 36 | 1008.9 |
| 20260831200504 | 26 | 224 | 1.6 | 4.8 | 0.00 | 0.00 | 0.00 | 39 | 1009.0 |
| 20260831200004 | 25 | 152 | 4.8 | 9.7 | 0.00 | 0.00 | 0.00 | 40 | 1009.0 |
| 20260831195504 | 26 | 90 | 8.0 | 12.9 | 0.00 | 0.00 | 0.00 | 40 | 1009.1 |
| 20260831195004 | 26 | 215 | 1.6 | 3.2 | 0.00 | 0.00 | 0.00 | 41 | 1009.1 |
| 20260831194504 | 25 | 100 | 3.2 | 9.7 | 0.00 | 0.00 | 0.00 | 42 | 1009.2 |
| 20260831194005 | 25 | 244 | 1.6 | 14.5 | 0.00 | 0.00 | 0.00 | 42 | 1009.2 |
| 20260831193504 | 25 | 93 | 1.6 | 3.2 | 0.00 | 0.00 | 0.00 | 43 | 1009.3 |
| 20260831193005 | 25 | 38 | 3.2 | 8.0 | 0.00 | 0.00 | 0.00 | 43 | 1009.3 |
| 20260831192004 | 25 | 47 | 1.6 | 8.0 | 0.00 | 0.00 | 0.00 | 42 | 1009.4 |
| 20260831191505 | 25 | 301 | 3.2 | 8.0 | 0.00 | 0.00 | 0.00 | 43 | 1009.4 |
| 20260831191004 | 24 | 246 | 1.6 | 3.2 | 0.00 | 0.00 | 0.00 | 43 | 1009.5 |
| 20260831190504 | 25 | 23 | 3.2 | 4.8 | 0.00 | 0.00 | 0.00 | 46 | 1009.5 |
| 20260831190005 | 24 | 184 | 1.6 | 8.0 | 0.00 | 0.00 | 0.00 | 43 | 1009.6 |
| 20260831185004 | 24 | 180 | 1.6 | 3.2 | 0.00 | 0.00 | 0.00 | 46 | 1009.8 |
| 20260831184505 | 23 | 314 | 3.2 | 8.0 | 0.00 | 0.00 | 0.00 | 50 | 1009.8 |
| 20260831184004 | 23 | 10 | 4.8 | 8.0 | 0.00 | 0.00 | 0.00 | 49 | 1009.8 |
| 20260831183505 | 23 | 20 | 1.6 | 4.8 | 0.00 | 0.00 | 0.00 | 51 | 1009.9 |
| 20260831183004 | 23 | 4 | 4.8 | 9.7 | 0.00 | 0.00 | 0.00 | 50 | 1010.0 |
| 20260831182504 | 23 | 10 | 3.2 | 9.7 | 0.00 | 0.00 | 0.00 | 52 | 1010.0 |
| 20260831182005 | 23 | 12 | 6.4 | 12.9 | 0.00 | 0.00 | 0.00 | 49 | 1010.1 |
| 20260831181004 | 22 | 52 | 3.2 | 4.8 | 0.00 | 0.00 | 0.00 | 53 | 1010.1 |
| 20260831180504 | 22 | 262 | 1.6 | 4.8 | 0.00 | 0.00 | 0.00 | 54 | 1010.3 |
| 20260831180004 | 22 | 309 | 1.6 | 8.0 | 0.00 | 0.00 | 0.00 | 54 | 1010.3 |
| 20260831175504 | 22 | 19 | 4.8 | 9.7 | 0.00 | 0.00 | 0.00 | 54 | 1010.4 |
| 20260831175004 | 22 | 32 | 3.2 | 4.8 | 0.00 | 0.00 | 0.00 | 56 | 1010.4 |
| 20260831174504 | 22 | 47 | 1.6 | 3.2 | 0.00 | 0.00 | 0.00 | 56 | 1010.5 |
| 20260831174005 | 22 | 64 | 4.8 | 9.7 | 0.00 | 0.00 | 0.00 | 56 | 1010.5 |
| 20260831173005 | 21 | 55 | 1.6 | 4.8 | 0.00 | 0.00 | 0.00 | 58 | 1010.6 |
| 20260831172504 | 21 | 17 | 1.6 | 8.0 | 0.00 | 0.00 | 0.00 | 59 | 1010.6 |
| 20260831172004 | 21 | 6 | 3.2 | 4.8 | 0.00 | 0.00 | 0.00 | 60 | 1010.7 |
| 20260831171504 | 20 | 28 | 4.8 | 4.8 | 0.00 | 0.00 | 0.00 | 61 | 1010.7 |
| 20260831171004 | 20 | 20 | 3.2 | 4.8 | 0.00 | 0.00 | 0.00 | 61 | 1010.8 |
| 20260831170005 | 20 | 6 | 3.2 | 3.2 | 0.00 | 0.00 | 0.00 | 62 | 1010.9 |
| 20260831165504 | 20 | 20 | 1.6 | 4.8 | 0.00 | 0.00 | 0.00 | 63 | 1010.9 |
| 20260831165004 | 19 | 327 | 3.2 | 8.0 | 0.00 | 0.00 | 0.00 | 63 | 1011.0 |
| 20260831164504 | 19 | 11 | 3.2 | 8.0 | 0.00 | 0.00 | 0.00 | 64 | 1011.1 |
| 20260831164004 | 19 | 23 | 3.2 | 8.0 | 0.00 | 0.00 | 0.00 | 64 | 1011.2 |
| 20260831163005 | 18 | 331 | 3.2 | 4.8 | 0.00 | 0.00 | 0.00 | 64 | 1011.2 |
| 20260831162505 | 18 | 4 | 3.2 | 8.0 | 0.00 | 0.00 | 0.00 | 65 | 1011.3 |
| 20260831162004 | 18 | 0 | 4.8 | 9.7 | 0.00 | 0.00 | 0.00 | 66 | 1011.2 |
| 20260831161504 | 18 | 21 | 3.2 | 8.0 | 0.00 | 0.00 | 0.00 | 66 | 1011.3 |
| 20260831160504 | 18 | 24 | 3.2 | 8.0 | 0.00 | 0.00 | 0.00 | 68 | 1011.4 |
| 20260831160004 | 18 | 22 | 4.8 | 9.7 | 0.00 | 0.00 | 0.00 | 67 | 1011.3 |
| 20260831155504 | 18 | 352 | 3.2 | 9.7 | 0.00 | 0.00 | 0.00 | 68 | 1011.4 |
| 20260831155004 | 17 | 352 | 4.8 | 8.0 | 0.00 | 0.00 | 0.00 | 70 | 1011.4 |
| 20260831154004 | 16 | 86 | 1.6 | 3.2 | 0.00 | 0.00 | 0.00 | 74 | 1011.5 |
| 20260831153004 | 16 | 34 | 1.6 | 3.2 | 0.00 | 0.00 | 0.00 | 77 | 1011.5 |
| 20260831152504 | 15 | 13 | 1.6 | 3.2 | 0.00 | 0.00 | 0.00 | 79 | 1011.5 |
| 20260831152004 | 15 | 84 | 1.6 | 3.2 | 0.00 | 0.00 | 0.00 | 80 | 1011.6 |
| 20260831151504 | 14 | 84 | 1.6 | 3.2 | 0.00 | 0.00 | 0.00 | 81 | 1011.6 |
| 20260831151004 | 13 | 84 | 0.0 | 1.6 | 0.00 | 0.00 | 0.00 | 82 | 1011.6 |
| 20260831150504 | 13 | 85 | 0.0 | 1.6 | 0.00 | 0.00 | 0.00 | 82 | 1011.7 |
| 20260831150005 | 13 | 86 | 1.6 | 3.2 | 0.00 | 0.00 | 0.00 | 82 | 1011.7 |
| 20260831145506 | 13 | 94 | 1.6 | 3.2 | 0.00 | 0.00 | 0.00 | 82 | 1011.7 |
| 20260831145005 | 13 | 94 | 1.6 | 3.2 | 0.00 | 0.00 | 0.00 | 82 | 1011.7 |
| 20260831144505 | 13 | 94 | 1.6 | 3.2 | 0.00 | 0.00 | 0.00 | 82 | 1011.7 |
| 20260831144004 | 13 | 94 | 1.6 | 3.2 | 0.00 | 0.00 | 0.00 | 82 | 1011.8 |
| 20260831143504 | 12 | 103 | 1.6 | 3.2 | 0.00 | 0.00 | 0.00 | 82 | 1011.7 |
| 20260831143005 | 12 | 144 | 1.6 | 3.2 | 0.00 | 0.00 | 0.00 | 83 | 1011.7 |
| 20260831142504 | 12 | 144 | 0.0 | 3.2 | 0.00 | 0.00 | 0.00 | 83 | 1011.8 |
| 20260831142004 | 12 | 144 | 0.0 | 3.2 | 0.00 | 0.00 | 0.00 | 83 | 1011.7 |
| 20260831141005 | 12 | 144 | 0.0 | 3.2 | 0.00 | 0.00 | 0.00 | 82 | 1011.8 |
| 20260831140505 | 12 | 144 | 0.0 | 3.2 | 0.00 | 0.00 | 0.00 | 82 | 1011.8 |
| 20260831140005 | 12 | 144 | 1.6 | 3.2 | 0.00 | 0.00 | 0.00 | 82 | 1011.8 |
| 20260831135505 | 12 | 144 | 0.0 | 3.2 | 0.00 | 0.00 | 0.00 | 81 | 1011.7 |
| 20260831135004 | 12 | 146 | 0.0 | 3.2 | 0.00 | 0.00 | 0.00 | 81 | 1011.7 |
| 20260831134504 | 12 | 146 | 0.0 | 3.2 | 0.00 | 0.00 | 0.00 | 80 | 1011.7 |
| 20260831133504 | 13 | 123 | 1.6 | 3.2 | 0.00 | 0.00 | 0.00 | 79 | 1011.8 |
| 20260831133004 | 13 | 111 | 1.6 | 3.2 | 0.00 | 0.00 | 0.00 | 78 | 1011.7 |
| 20260831132504 | 13 | 89 | 1.6 | 3.2 | 0.00 | 0.00 | 0.00 | 77 | 1011.8 |
| 20260831132004 | 13 | 10 | 1.6 | 3.2 | 0.00 | 0.00 | 0.00 | 76 | 1011.8 |
| 20260831131504 | 14 | 46 | 0.0 | 1.6 | 0.00 | 0.00 | 0.00 | 75 | 1011.9 |
| 20260831131005 | 15 | 46 | 0.0 | 3.2 | 0.00 | 0.00 | 0.00 | 74 | 1011.9 |
| 20260831130504 | 15 | 39 | 0.0 | 1.6 | 0.00 | 0.00 | 0.00 | 73 | 1012.0 |
| 20260831130005 | 15 | 6 | 1.6 | 4.8 | 0.00 | 0.00 | 0.00 | 73 | 1011.9 |
| 20260831125504 | 15 | 347 | 1.6 | 3.2 | 0.00 | 0.00 | 0.00 | 73 | 1011.9 |
| 20260831125005 | 15 | 351 | 1.6 | 4.8 | 0.00 | 0.00 | 0.00 | 72 | 1011.9 |
| 20260831124504 | 15 | 329 | 1.6 | 4.8 | 0.00 | 0.00 | 0.00 | 73 | 1012.0 |
| 20260831124004 | 15 | 329 | 1.6 | 4.8 | 0.00 | 0.00 | 0.00 | 73 | 1012.0 |
| 20260831123504 | 15 | 328 | 1.6 | 4.8 | 0.00 | 0.00 | 0.00 | 73 | 1011.9 |
| 20260831123005 | 15 | 330 | 3.2 | 4.8 | 0.00 | 0.00 | 0.00 | 73 | 1012.0 |
| 20260831122504 | 15 | 326 | 3.2 | 4.8 | 0.00 | 0.00 | 0.00 | 73 | 1012.0 |
| 20260831122004 | 15 | 329 | 1.6 | 3.2 | 0.00 | 0.00 | 0.00 | 73 | 1012.2 |
| 20260831121504 | 15 | 325 | 1.6 | 3.2 | 0.00 | 0.00 | 0.00 | 73 | 1012.2 |
| 20260831121004 | 15 | 332 | 3.2 | 3.2 | 0.00 | 0.00 | 0.00 | 73 | 1012.2 |
| 20260831120504 | 15 | 19 | 0.0 | 3.2 | 0.00 | 0.00 | 0.00 | 72 | 1012.2 |
| 20260831120004 | 15 | 19 | 1.6 | 3.2 | 0.00 | 0.00 | 0.00 | 72 | 1012.3 |
| 20260831115004 | 16 | 326 | 1.6 | 4.8 | 0.00 | 0.00 | 0.00 | 72 | 1012.4 |
| 20260831114504 | 16 | 335 | 1.6 | 4.8 | 0.00 | 0.00 | 0.00 | 72 | 1012.4 |
| 20260831114004 | 16 | 328 | 1.6 | 3.2 | 0.00 | 0.00 | 0.00 | 72 | 1012.3 |
| 20260831113504 | 16 | 328 | 3.2 | 4.8 | 0.00 | 0.00 | 0.00 | 72 | 1012.3 |
| 20260831113004 | 16 | 354 | 3.2 | 4.8 | 0.00 | 0.00 | 0.00 | 72 | 1012.4 |
| 20260831112504 | 16 | 328 | 1.6 | 3.2 | 0.00 | 0.00 | 0.00 | 72 | 1012.4 |
| 20260831112004 | 16 | 333 | 3.2 | 4.8 | 0.00 | 0.00 | 0.00 | 72 | 1012.5 |
| 20260831111504 | 16 | 331 | 1.6 | 3.2 | 0.00 | 0.00 | 0.00 | 72 | 1012.6 |
| 20260831111004 | 16 | 324 | 3.2 | 4.8 | 0.00 | 0.00 | 0.00 | 72 | 1012.5 |
| 20260831110504 | 16 | 338 | 1.6 | 3.2 | 0.00 | 0.00 | 0.00 | 71 | 1012.5 |
| 20260831110004 | 16 | 323 | 1.6 | 3.2 | 0.00 | 0.00 | 0.00 | 71 | 1012.5 |
| 20260831105504 | 16 | 331 | 3.2 | 3.2 | 0.00 | 0.00 | 0.00 | 71 | 1012.5 |
| 20260831105004 | 16 | 325 | 1.6 | 3.2 | 0.00 | 0.00 | 0.00 | 71 | 1012.5 |
| 20260831104504 | 16 | 330 | 3.2 | 3.2 | 0.00 | 0.00 | 0.00 | 71 | 1012.5 |
| 20260831104004 | 16 | 329 | 3.2 | 4.8 | 0.00 | 0.00 | 0.00 | 71 | 1012.6 |
| 20260831103504 | 16 | 333 | 3.2 | 8.0 | 0.00 | 0.00 | 0.00 | 71 | 1012.6 |
| 20260831103004 | 16 | 327 | 3.2 | 4.8 | 0.00 | 0.00 | 0.00 | 72 | 1012.6 |
| 20260831102504 | 16 | 334 | 1.6 | 4.8 | 0.00 | 0.00 | 0.00 | 72 | 1012.7 |
| 20260831102004 | 16 | 326 | 3.2 | 4.8 | 0.00 | 0.00 | 0.00 | 72 | 1012.7 |
| 20260831101504 | 16 | 332 | 3.2 | 8.0 | 0.00 | 0.00 | 0.00 | 73 | 1012.8 |
| 20260831101004 | 15 | 327 | 3.2 | 4.8 | 0.00 | 0.00 | 0.00 | 73 | 1012.9 |
| 20260831100504 | 15 | 329 | 1.6 | 3.2 | 0.00 | 0.00 | 0.00 | 74 | 1013.0 |
| 20260831095504 | 15 | 312 | 1.6 | 4.8 | 0.00 | 0.00 | 0.00 | 73 | 1013.2 |
| 20260831093504 | 16 | 314 | 1.6 | 1.6 | 0.00 | 0.00 | 0.00 | 72 | 1013.4 |
| 20260831093004 | 16 | 313 | 1.6 | 3.2 | 0.00 | 0.00 | 0.00 | 72 | 1013.4 |
| 20260831092504 | 16 | 353 | 0.0 | 3.2 | 0.00 | 0.00 | 0.00 | 72 | 1013.4 |
| 20260831092004 | 16 | 321 | 1.6 | 3.2 | 0.00 | 0.00 | 0.00 | 72 | 1013.3 |
| 20260831091504 | 16 | 354 | 1.6 | 3.2 | 0.00 | 0.00 | 0.00 | 72 | 1013.3 |
| 20260831091004 | 16 | 353 | 1.6 | 3.2 | 0.00 | 0.00 | 0.00 | 72 | 1013.4 |
| 20260831090504 | 16 | 350 | 3.2 | 3.2 | 0.00 | 0.00 | 0.00 | 72 | 1013.5 |
| 20260831090004 | 16 | 352 | 1.6 | 3.2 | 0.00 | 0.00 | 0.00 | 71 | 1013.6 |
| 20260831085504 | 16 | 358 | 1.6 | 3.2 | 0.00 | 0.00 | 0.00 | 72 | 1013.6 |
| 20260831085004 | 16 | 318 | 1.6 | 4.8 | 0.00 | 0.00 | 0.00 | 71 | 1013.6 |
| 20260831084504 | 16 | 347 | 3.2 | 4.8 | 0.00 | 0.00 | 0.00 | 72 | 1013.7 |
| 20260831084004 | 16 | 352 | 1.6 | 3.2 | 0.00 | 0.00 | 0.00 | 72 | 1013.7 |
| 20260831083504 | 16 | 326 | 1.6 | 3.2 | 0.00 | 0.00 | 0.00 | 72 | 1013.8 |
| 20260831083004 | 16 | 331 | 3.2 | 3.2 | 0.00 | 0.00 | 0.00 | 71 | 1013.8 |
| 20260831082504 | 16 | 323 | 3.2 | 4.8 | 0.00 | 0.00 | 0.00 | 71 | 1013.9 |
| 20260831082004 | 17 | 341 | 1.6 | 4.8 | 0.00 | 0.00 | 0.00 | 71 | 1013.9 |
| 20260831080504 | 17 | 344 | 1.6 | 4.8 | 0.00 | 0.00 | 0.00 | 71 | 1014.0 |
| 20260831080004 | 17 | 320 | 3.2 | 8.0 | 0.00 | 0.00 | 0.00 | 71 | 1014.1 |
| 20260831075004 | 17 | 321 | 1.6 | 4.8 | 0.00 | 0.00 | 0.00 | 70 | 1014.3 |
| 20260831074504 | 17 | 336 | 3.2 | 4.8 | 0.00 | 0.00 | 0.00 | 70 | 1014.2 |
| 20260831073504 | 17 | 332 | 4.8 | 9.7 | 0.00 | 0.00 | 0.00 | 70 | 1014.2 |
| 20260831073004 | 17 | 333 | 3.2 | 9.7 | 0.00 | 0.00 | 0.00 | 70 | 1014.3 |
| 20260831072504 | 17 | 329 | 3.2 | 9.7 | 0.00 | 0.00 | 0.00 | 70 | 1014.3 |
| 20260831072004 | 17 | 341 | 3.2 | 9.7 | 0.00 | 0.00 | 0.00 | 70 | 1014.4 |
| 20260831071504 | 17 | 330 | 4.8 | 8.0 | 0.00 | 0.00 | 0.00 | 70 | 1014.4 |
| 20260831071004 | 17 | 331 | 4.8 | 9.7 | 0.00 | 0.00 | 0.00 | 70 | 1014.4 |
| 20260831070504 | 17 | 353 | 4.8 | 11.3 | 0.00 | 0.00 | 0.00 | 70 | 1014.4 |
| 20260831070004 | 17 | 333 | 4.8 | 9.7 | 0.00 | 0.00 | 0.00 | 70 | 1014.4 |
| 20260831065505 | 17 | 335 | 4.8 | 9.7 | 0.00 | 0.00 | 0.00 | 70 | 1014.5 |
| 20260831065004 | 17 | 319 | 4.8 | 11.3 | 0.00 | 0.00 | 0.00 | 70 | 1014.6 |
| 20260831064504 | 17 | 325 | 4.8 | 9.7 | 0.00 | 0.00 | 0.00 | 70 | 1014.7 |
| 20260831064004 | 17 | 334 | 4.8 | 8.0 | 0.00 | 0.00 | 0.00 | 70 | 1014.7 |
| 20260831063504 | 17 | 328 | 6.4 | 9.7 | 0.00 | 0.00 | 0.00 | 70 | 1014.7 |
| 20260831063004 | 17 | 330 | 3.2 | 9.7 | 0.00 | 0.00 | 0.00 | 70 | 1014.9 |